Total_Precipitation_Accumulation
0.10 0.10 0.11 0.12 0.11 0.09 0.10 0.09 0.09 0.07 0.07 0.08 0.07 0.06 0.08 0.09 0.07 0.06 0.07 0.07 0.04 0.07 0.08 0.03 0.05 0.05 0.02 0.03 0.02 0.00 0.00 0.01 0.00 0.00 0.00 0.00 0.00 0.00 0.00 0.00 0.00 0.00 0.00 0.00 0.00 0.00 0.00 0.00 0.00 0.00 0.00 0.00 0.00 0.00 0.00 0.00 0.00 0.00 0.00 0.00 0.00 0.00 0.00 0.00 0.00 0.00 0.00 0.00 0.00 0.00 0.00 0.00 0.00 0.00 0.00 0.00 0.00 0.00 0.00 0.00 0.01 0.02 0.05 0.15 0.10 0.22 0.16 0.42
0.12 0.12 0.12 0.13 0.11 0.10 0.09 0.08 0.08 0.09 0.07 0.06 0.07 0.07 0.07 0.07 0.10 0.09 0.07 0.07 0.08 0.04 0.04 0.08 0.03 0.02 0.03 0.02 0.01 0.01 0.01 0.00 0.00 0.00 0.00 0.00 0.00 0.00 0.00 0.00 0.00 0.00 0.00 0.00 0.00 0.00 0.00 0.00 0.00 0.00 0.00 0.00 0.00 0.00 0.00 0.00 0.00 0.00 0.00 0.00 0.00 0.00 0.00 0.00 0.00 0.00 0.00 0.00 0.00 0.00 0.00 0.00 0.00 0.00 0.00 0.01 0.00 0.00 0.00 0.01 0.01 0.06 0.17 0.22 0.30 0.87 1.00 1.21
0.11 0.13 0.11 0.12 0.12 0.11 0.09 0.07 0.08 0.07 0.07 0.07 0.07 0.10 0.08 0.06 0.08 0.10 0.07 0.06 0.05 0.04 0.05 0.04 0.06 0.03 0.01 0.04 0.01 0.01 0.01 0.00 0.00 0.00 0.01 0.00 0.00 0.00 0.00 0.00 0.00 0.00 0.00 0.00 0.00 0.00 0.00 0.00 0.00 0.00 0.00 0.00 0.00 0.00 0.00 0.00 0.00 0.00 0.00 0.00 0.00 0.00 0.00 0.00 0.00 0.00 0.00 0.00 0.00 0.00 0.00 0.00 0.00 0.00 0.00 0.01 0.01 0.00 0.00 0.04 0.03 0.07 0.32 0.25 0.40 0.89 1.86 2.01
0.11 0.12 0.13 0.13 0.12 0.11 0.09 0.09 0.08 0.06 0.09 0.09 0.09 0.09 0.09 0.08 0.06 0.08 0.10 0.07 0.03 0.07 0.06 0.03 0.02 0.04 0.03 0.01 0.02 0.00 0.00 0.00 0.00 0.00 0.00 0.00 0.00 0.00 0.00 0.00 0.00 0.00 0.00 0.00 0.00 0.00 0.00 0.00 0.00 0.00 0.00 0.00 0.00 0.00 0.00 0.00 0.00 0.00 0.00 0.00 0.00 0.00 0.00 0.00 0.00 0.00 0.00 0.00 0.00 0.00 0.00 0.00 0.00 0.00 0.00 0.00 0.00 0.03 0.01 0.00 0.04 0.11 0.21 0.22 0.50 1.47 1.08 1.77
0.11 0.13 0.12 0.11 0.11 0.11 0.10 0.08 0.09 0.09 0.07 0.08 0.09 0.09 0.09 0.06 0.08 0.07 0.07 0.07 0.05 0.07 0.05 0.04 0.03 0.01 0.05 0.05 0.01 0.00 0.00 0.00 0.02 0.00 0.00 0.00 0.00 0.00 0.00 0.00 0.00 0.00 0.00 0.00 0.00 0.00 0.00 0.00 0.00 0.00 0.00 0.00 0.00 0.00 0.00 0.00 0.00 0.00 0.00 0.00 0.00 0.00 0.00 0.00 0.00 0.00 0.00 0.00 0.00 0.00 0.00 0.00 0.00 0.00 0.00 0.00 0.00 0.01 0.00 0.03 0.01 0.07 0.13 0.51 0.74 0.31 0.48 1.13
0.11 0.12 0.13 0.13 0.11 0.13 0.10 0.08 0.08 0.07 0.07 0.07 0.08 0.09 0.06 0.08 0.07 0.07 0.06 0.06 0.08 0.05 0.05 0.04 0.05 0.02 0.04 0.03 0.00 0.00 0.00 0.00 0.00 0.00 0.00 0.00 0.00 0.00 0.00 0.00 0.00 0.00 0.00 0.00 0.00 0.00 0.00 0.00 0.00 0.00 0.00 0.00 0.00 0.00 0.00 0.00 0.00 0.00 0.00 0.00 0.00 0.00 0.00 0.00 0.00 0.00 0.00 0.00 0.00 0.00 0.00 0.00 0.00 0.00 0.00 0.00 0.00 0.00 0.00 0.00 0.00 0.03 0.05 0.34 1.20 0.51 1.20 2.13
0.12 0.11 0.11 0.12 0.11 0.11 0.10 0.09 0.08 0.07 0.06 0.07 0.08 0.07 0.08 0.10 0.07 0.08 0.07 0.07 0.05 0.06 0.04 0.05 0.03 0.04 0.03 0.01 0.00 0.01 0.01 0.00 0.00 0.00 0.00 0.00 0.00 0.00 0.00 0.00 0.00 0.00 0.00 0.00 0.00 0.00 0.00 0.00 0.00 0.00 0.00 0.00 0.00 0.00 0.00 0.00 0.00 0.00 0.00 0.00 0.00 0.00 0.00 0.00 0.00 0.00 0.00 0.00 0.00 0.00 0.00 0.00 0.00 0.00 0.00 0.00 0.00 0.00 0.00 0.00 0.02 0.06 0.13 0.11 0.58 1.61 1.62 2.60
0.12 0.11 0.11 0.12 0.11 0.10 0.09 0.09 0.08 0.06 0.07 0.08 0.08 0.07 0.08 0.06 0.08 0.07 0.06 0.06 0.05 0.04 0.06 0.06 0.03 0.01 0.06 0.03 0.01 0.00 0.02 0.00 0.00 0.00 0.00 0.00 0.00 0.00 0.00 0.00 0.00 0.00 0.00 0.00 0.00 0.00 0.00 0.00 0.00 0.00 0.00 0.00 0.00 0.00 0.00 0.00 0.00 0.00 0.00 0.00 0.00 0.00 0.00 0.00 0.00 0.00 0.00 0.00 0.00 0.00 0.00 0.00 0.00 0.00 0.00 0.00 0.00 0.00 0.00 0.00 0.01 0.09 0.14 0.29 0.23 0.22 1.19 2.03
0.13 0.11 0.13 0.11 0.10 0.08 0.08 0.08 0.07 0.09 0.07 0.07 0.06 0.07 0.06 0.05 0.05 0.05 0.05 0.06 0.04 0.03 0.05 0.04 0.04 0.03 0.03 0.11 0.08 0.04 0.00 0.00 0.00 0.00 0.00 0.00 0.00 0.00 0.00 0.00 0.00 0.00 0.00 0.00 0.00 0.00 0.00 0.00 0.00 0.00 0.00 0.00 0.00 0.00 0.00 0.00 0.00 0.00 0.00 0.00 0.00 0.00 0.00 0.00 0.00 0.00 0.00 0.00 0.00 0.00 0.00 0.00 0.00 0.00 0.00 0.00 0.00 0.00 0.00 0.01 0.02 0.15 0.23 0.21 0.26 0.27 0.32 1.18
0.13 0.14 0.12 0.11 0.08 0.07 0.07 0.08 0.08 0.09 0.11 0.08 0.08 0.06 0.06 0.04 0.04 0.05 0.04 0.04 0.05 0.05 0.03 0.05 0.04 0.08 0.10 0.12 0.06 0.04 0.00 0.00 0.00 0.00 0.00 0.00 0.00 0.00 0.00 0.00 0.00 0.00 0.00 0.00 0.00 0.00 0.00 0.00 0.00 0.00 0.00 0.00 0.00 0.00 0.00 0.00 0.00 0.00 0.00 0.00 0.00 0.00 0.00 0.00 0.00 0.00 0.00 0.00 0.00 0.00 0.00 0.00 0.00 0.00 0.00 0.00 0.00 0.01 0.00 0.01 0.06 0.17 0.38 0.23 0.19 0.40 0.59 0.45
0.12 0.11 0.10 0.10 0.11 0.07 0.09 0.06 0.08 0.08 0.09 0.06 0.06 0.06 0.04 0.04 0.03 0.02 0.04 0.03 0.05 0.05 0.06 0.02 0.11 0.09 0.18 0.21 0.11 0.01 0.00 0.00 0.00 0.00 0.00 0.00 0.00 0.00 0.00 0.00 0.00 0.00 0.00 0.00 0.00 0.00 0.00 0.00 0.00 0.00 0.00 0.00 0.00 0.00 0.00 0.00 0.00 0.00 0.00 0.00 0.00 0.00 0.00 0.00 0.00 0.00 0.00 0.00 0.00 0.00 0.00 0.00 0.00 0.00 0.00 0.00 0.02 0.01 0.01 0.03 0.06 0.07 0.20 0.26 0.25 0.26 0.27 0.29
0.11 0.11 0.11 0.06 0.12 0.08 0.05 0.06 0.09 0.07 0.05 0.07 0.06 0.03 0.05 0.03 0.04 0.02 0.03 0.03 0.03 0.06 0.04 0.04 0.04 0.30 0.13 0.17 0.15 0.00 0.00 0.00 0.00 0.00 0.00 0.00 0.00 0.00 0.00 0.00 0.00 0.00 0.00 0.00 0.00 0.00 0.00 0.00 0.00 0.00 0.00 0.00 0.00 0.00 0.00 0.00 0.00 0.00 0.00 0.00 0.00 0.00 0.00 0.00 0.00 0.00 0.00 0.00 0.00 0.00 0.00 0.00 0.00 0.00 0.00 0.01 0.02 0.03 0.01 0.03 0.06 0.14 0.19 0.23 0.30 0.32 0.32 0.26
0.09 0.13 0.11 0.11 0.09 0.11 0.06 0.08 0.07 0.08 0.04 0.05 0.04 0.03 0.02 0.02 0.03 0.03 0.03 0.02 0.02 0.04 0.03 0.06 0.07 0.13 0.40 0.35 0.01 0.00 0.00 0.00 0.00 0.00 0.00 0.00 0.00 0.00 0.00 0.00 0.00 0.00 0.00 0.00 0.00 0.00 0.00 0.00 0.00 0.00 0.00 0.00 0.00 0.00 0.00 0.00 0.00 0.00 0.00 0.00 0.00 0.00 0.00 0.00 0.00 0.00 0.00 0.00 0.00 0.00 0.00 0.00 0.00 0.00 0.00 0.02 0.02 0.03 0.05 0.07 0.11 0.14 0.18 0.25 0.30 0.43 0.43 0.53
0.11 0.12 0.11 0.12 0.08 0.08 0.10 0.08 0.05 0.06 0.05 0.03 0.03 0.03 0.02 0.01 0.03 0.02 0.02 0.02 0.03 0.03 0.08 0.03 0.23 0.20 0.38 0.06 0.00 0.00 0.00 0.00 0.00 0.00 0.00 0.00 0.00 0.00 0.00 0.00 0.00 0.00 0.00 0.00 0.00 0.00 0.00 0.00 0.00 0.00 0.00 0.00 0.00 0.00 0.00 0.00 0.00 0.00 0.00 0.00 0.00 0.00 0.02 0.00 0.00 0.02 0.00 0.00 0.00 0.00 0.00 0.00 0.00 0.00 0.01 0.03 0.01 0.01 0.03 0.06 0.12 0.19 0.16 0.22 0.28 0.35 0.38 0.56
0.10 0.10 0.09 0.09 0.09 0.09 0.11 0.08 0.08 0.05 0.05 0.05 0.02 0.02 0.01 0.01 0.01 0.02 0.02 0.02 0.03 0.02 0.03 0.11 0.10 0.25 0.32 0.01 0.00 0.00 0.00 0.00 0.00 0.00 0.00 0.00 0.00 0.00 0.00 0.00 0.00 0.00 0.00 0.00 0.00 0.00 0.00 0.00 0.00 0.00 0.00 0.00 0.00 0.00 0.00 0.00 0.00 0.00 0.00 0.01 0.00 0.01 0.02 0.03 0.02 0.00 0.00 0.00 0.00 0.00 0.00 0.00 0.00 0.00 0.01 0.02 0.02 0.01 0.01 0.06 0.18 0.24 0.13 0.20 0.22 0.40 0.32 0.46
0.12 0.11 0.09 0.08 0.07 0.08 0.08 0.11 0.06 0.05 0.06 0.07 0.03 0.02 0.01 0.01 0.01 0.00 0.00 0.01 0.01 0.03 0.07 0.08 0.08 0.06 0.06 0.02 0.04 0.00 0.00 0.00 0.00 0.00 0.00 0.00 0.00 0.00 0.00 0.00 0.00 0.00 0.00 0.00 0.00 0.00 0.00 0.00 0.00 0.00 0.00 0.00 0.00 0.00 0.00 0.00 0.01 0.11 0.06 0.02 0.04 0.04 0.10 0.01 0.02 0.00 0.00 0.00 0.00 0.00 0.00 0.00 0.00 0.00 0.01 0.05 0.03 0.02 0.07 0.12 0.22 0.16 0.23 0.25 0.21 0.18 0.22 0.34
0.11 0.12 0.09 0.07 0.07 0.06 0.07 0.07 0.06 0.05 0.05 0.05 0.02 0.00 0.01 0.00 0.00 0.00 0.01 0.02 0.03 0.04 0.11 0.03 0.02 0.05 0.14 0.00 0.00 0.00 0.00 0.02 0.00 0.00 0.00 0.00 0.00 0.00 0.00 0.00 0.00 0.00 0.00 0.00 0.00 0.00 0.00 0.00 0.00 0.00 0.00 0.00 0.00 0.01 0.06 0.03 0.02 0.12 0.09 0.06 0.05 0.03 0.07 0.02 0.03 0.00 0.01 0.00 0.00 0.00 0.00 0.00 0.00 0.00 0.01 0.04 0.02 0.03 0.06 0.33 0.36 0.43 0.23 0.67 0.23 0.33 0.26 0.25
0.09 0.08 0.08 0.06 0.05 0.05 0.07 0.06 0.07 0.08 0.05 0.05 0.03 0.01 0.01 0.00 0.01 0.00 0.02 0.02 0.02 0.01 0.02 0.01 0.04 0.30 0.13 0.00 0.01 0.01 0.00 0.00 0.00 0.01 0.00 0.00 0.00 0.00 0.00 0.00 0.00 0.00 0.00 0.00 0.00 0.00 0.00 0.00 0.00 0.00 0.02 0.01 0.00 0.02 0.05 0.07 0.10 0.13 0.10 0.20 0.08 0.06 0.02 0.06 0.06 0.10 0.00 0.02 0.00 0.00 0.00 0.00 0.00 0.00 0.01 0.01 0.02 0.01 0.06 0.11 0.20 0.30 0.59 0.25 0.15 0.55 0.49 0.37
0.11 0.08 0.06 0.05 0.05 0.05 0.06 0.06 0.07 0.07 0.06 0.04 0.01 0.01 0.00 0.01 0.02 0.03 0.01 0.03 0.06 0.13 0.17 0.11 0.12 0.10 0.05 0.02 0.00 0.00 0.00 0.00 0.00 0.00 0.00 0.00 0.00 0.00 0.00 0.00 0.00 0.00 0.04 0.00 0.08 0.00 0.03 0.00 0.00 0.00 0.02 0.03 0.08 0.02 0.03 0.02 0.02 0.05 0.03 0.03 0.02 0.02 0.02 0.03 0.03 0.03 0.06 0.08 0.02 0.00 0.00 0.00 0.00 0.00 0.01 0.04 0.08 0.03 0.04 0.12 0.18 0.25 0.19 0.48 0.48 0.66 0.61 0.42
0.08 0.11 0.08 0.09 0.07 0.05 0.08 0.06 0.04 0.04 0.05 0.05 0.02 0.04 0.01 0.04 0.13 0.09 0.03 0.03 0.02 0.00 0.00 0.00 0.01 0.00 0.00 0.00 0.00 0.01 0.00 0.00 0.00 0.01 0.00 0.00 0.00 0.00 0.00 0.00 0.00 0.00 0.00 0.03 0.02 0.01 0.00 0.06 0.02 0.06 0.03 0.02 0.02 0.01 0.03 0.02 0.01 0.00 0.01 0.03 0.04 0.02 0.01 0.00 0.01 0.00 0.01 0.03 0.00 0.00 0.00 0.00 0.00 0.00 0.00 0.00 0.03 0.07 0.10 0.28 0.21 0.22 0.20 0.29 0.17 0.14 0.47 0.77
0.11 0.08 0.09 0.07 0.07 0.07 0.07 0.11 0.13 0.07 0.10 0.10 0.04 0.03 0.03 0.06 0.04 0.08 0.10 0.10 0.05 0.01 0.02 0.00 0.01 0.00 0.00 0.00 0.00 0.00 0.00 0.00 0.00 0.00 0.00 0.01 0.00 0.00 0.03 0.00 0.00 0.02 0.01 0.00 0.01 0.01 0.02 0.02 0.05 0.02 0.01 0.03 0.03 0.02 0.03 0.03 0.05 0.06 0.07 0.03 0.01 0.03 0.04 0.03 0.01 0.03 0.03 0.01 0.01 0.00 0.00 0.00 0.00 0.00 0.00 0.02 0.03 0.03 0.02 0.09 0.13 0.22 0.17 0.33 0.18 0.14 0.30 0.78
0.09 0.08 0.08 0.11 0.09 0.12 0.08 0.05 0.04 0.10 0.10 0.07 0.06 0.03 0.04 0.04 0.05 0.10 0.33 0.13 0.01 0.00 0.00 0.00 0.00 0.00 0.00 0.00 0.00 0.00 0.00 0.00 0.02 0.00 0.00 0.00 0.03 0.01 0.02 0.01 0.01 0.02 0.02 0.01 0.02 0.08 0.05 0.05 0.04 0.03 0.01 0.04 0.04 0.04 0.03 0.06 0.05 0.04 0.04 0.02 0.01 0.02 0.03 0.00 0.01 0.01 0.01 0.01 0.00 0.01 0.00 0.00 0.00 0.00 0.01 0.01 0.01 0.01 0.01 0.02 0.08 0.11 0.26 0.24 0.18 0.14 0.33 0.81
0.07 0.09 0.11 0.13 0.13 0.09 0.06 0.07 0.03 0.04 0.08 0.03 0.03 0.03 0.06 0.02 0.01 0.04 0.19 0.23 0.08 0.00 0.00 0.00 0.00 0.00 0.00 0.00 0.00 0.00 0.00 0.00 0.03 0.02 0.06 0.01 0.01 0.00 0.01 0.03 0.02 0.05 0.08 0.07 0.13 0.10 0.11 0.08 0.06 0.07 0.13 0.07 0.04 0.03 0.05 0.08 0.03 0.01 0.06 0.04 0.03 0.03 0.08 0.09 0.05 0.07 0.03 0.01 0.00 0.00 0.01 0.00 0.00 0.00 0.00 0.00 0.01 0.01 0.03 0.03 0.12 0.18 0.21 0.39 0.34 0.30 0.21 0.31
0.06 0.08 0.08 0.13 0.08 0.09 0.04 0.09 0.06 0.03 0.05 0.05 0.06 0.05 0.03 0.02 0.03 0.14 0.39 0.31 0.04 0.00 0.00 0.00 0.00 0.00 0.00 0.00 0.00 0.00 0.00 0.03 0.00 0.03 0.04 0.02 0.01 0.08 0.03 0.15 0.28 0.03 0.08 0.21 0.09 0.11 0.07 0.21 0.20 0.10 0.06 0.01 0.04 0.08 0.14 0.10 0.09 0.03 0.04 0.05 0.01 0.02 0.11 0.05 0.10 0.03 0.01 0.00 0.00 0.00 0.02 0.00 0.00 0.00 0.00 0.00 0.01 0.02 0.01 0.05 0.08 0.17 0.32 0.66 0.60 0.61 0.40 0.33
0.05 0.07 0.09 0.07 0.09 0.30 0.11 0.05 0.02 0.10 0.02 0.02 0.19 0.09 0.02 0.02 0.07 0.11 0.21 0.12 0.01 0.00 0.00 0.00 0.00 0.00 0.02 0.00 0.00 0.00 0.00 0.00 0.01 0.01 0.04 0.00 0.03 0.05 0.10 0.07 0.03 0.09 0.08 0.20 0.25 0.13 0.13 0.04 0.05 0.13 0.08 0.03 0.03 0.08 0.04 0.05 0.05 0.02 0.01 0.01 0.01 0.02 0.03 0.02 0.02 0.04 0.07 0.03 0.00 0.01 0.09 0.05 0.02 0.09 0.03 0.01 0.06 0.07 0.01 0.04 0.08 0.14 0.05 0.21 0.24 0.42 0.17 0.29
0.06 0.07 0.09 0.10 0.14 0.17 0.23 0.05 0.07 0.03 0.07 0.13 0.10 0.09 0.14 0.14 0.03 0.04 0.17 0.16 0.28 0.15 0.01 0.20 0.03 0.38 0.04 0.10 0.03 0.01 0.00 0.02 0.02 0.06 0.10 0.16 0.01 0.07 0.05 0.21 0.09 0.13 0.09 0.28 0.18 0.09 0.08 0.10 0.08 0.10 0.13 0.12 0.10 0.06 0.04 0.10 0.04 0.03 0.12 0.03 0.03 0.02 0.02 0.03 0.04 0.08 0.17 0.16 0.15 0.02 0.21 0.07 0.01 0.02 0.01 0.01 0.01 0.02 0.02 0.05 0.14 0.20 0.17 0.10 0.15 0.17 0.46 0.72
0.11 0.13 0.11 0.14 0.10 0.28 0.16 0.15 0.08 0.06 0.10 0.18 0.03 0.02 0.07 0.12 0.03 0.05 0.44 0.36 0.25 0.12 0.20 0.05 0.05 0.32 0.07 0.12 0.05 0.04 0.34 0.33 0.01 0.03 0.12 0.25 0.11 0.10 0.11 0.16 0.22 0.12 0.21 0.27 0.18 0.75 0.07 0.11 0.06 0.05 0.07 0.09 0.14 0.08 0.02 0.06 0.11 0.06 0.04 0.05 0.04 0.04 0.03 0.07 0.06 0.09 0.18 0.02 0.01 0.03 0.04 0.16 0.08 0.04 0.04 0.02 0.02 0.04 0.04 0.04 0.10 0.25 0.20 0.14 0.32 0.31 0.25 0.93
0.05 0.12 0.13 0.10 0.19 0.87 0.50 0.26 0.07 0.14 0.07 0.19 0.14 0.23 0.08 0.13 0.14 0.35 0.48 0.24 0.19 0.18 0.53 0.28 0.14 0.21 0.30 0.14 0.04 0.08 0.07 0.04 0.36 0.28 0.20 0.12 0.00 0.21 0.10 0.22 0.24 0.20 0.51 0.23 0.33 0.24 0.05 0.03 0.02 0.05 0.07 0.07 0.07 0.12 0.14 0.07 0.04 0.09 0.05 0.05 0.09 0.05 0.10 0.04 0.05 0.06 0.12 0.12 0.19 0.04 0.10 0.13 0.09 0.05 0.03 0.03 0.04 0.02 0.06 0.05 0.15 0.09 0.11 0.21 0.45 0.30 0.44 0.63
0.04 0.07 0.12 0.10 0.15 0.17 0.19 0.19 0.16 0.11 0.19 0.15 0.17 0.13 0.22 0.25 0.23 0.42 0.82 0.38 0.74 0.39 0.06 0.73 0.09 0.35 0.18 0.11 0.12 0.06 0.03 0.08 0.32 0.41 0.25 0.02 0.03 0.11 0.24 0.13 0.09 0.09 0.14 0.13 0.19 0.11 0.07 0.05 0.15 0.19 0.08 0.15 0.04 0.09 0.26 0.25 0.07 0.02 0.03 0.05 0.03 0.03 0.03 0.04 0.09 0.07 0.13 0.19 0.18 0.07 0.10 0.21 0.06 0.08 0.05 0.04 0.04 0.11 0.09 0.11 0.11 0.19 0.14 0.30 0.21 0.32 0.29 0.75
0.17 0.09 0.13 0.19 0.17 0.08 0.19 0.17 0.23 0.24 0.10 0.20 0.11 0.12 0.17 0.39 0.68 0.55 0.60 0.28 0.76 0.70 0.22 0.53 0.74 0.55 0.27 0.38 0.23 0.12 0.34 0.16 0.30 0.11 0.03 0.35 0.12 0.04 0.06 0.19 0.23 0.08 0.10 0.17 0.17 0.09 0.10 0.04 0.06 0.16 0.09 0.03 0.03 0.06 0.03 0.17 0.03 0.13 0.07 0.04 0.16 0.08 0.07 0.05 0.10 0.10 0.19 0.36 0.07 0.03 0.07 0.30 0.16 0.21 0.15 0.22 0.15 0.10 0.13 0.18 0.17 0.12 0.16 0.29 0.19 0.32 0.52 0.66
0.04 0.06 0.08 0.27 0.36 0.21 0.13 0.12 0.45 0.05 0.11 0.13 0.13 0.17 0.26 0.56 0.70 0.39 0.31 0.30 0.65 0.68 0.18 0.40 0.48 0.26 0.40 0.52 0.36 0.15 0.08 0.15 0.17 0.06 0.29 0.08 0.43 0.28 0.21 0.37 0.12 0.17 0.21 0.12 0.19 0.17 0.11 0.28 0.11 0.04 0.02 0.09 0.01 0.03 0.01 0.03 0.04 0.06 0.21 0.18 0.15 0.34 0.11 0.14 0.22 0.25 0.49 0.22 0.05 0.06 0.03 0.11 0.17 0.21 0.20 0.13 0.08 0.09 0.11 0.17 0.11 0.30 0.11 0.13 0.17 0.34 0.53 0.53
0.04 0.13 0.10 0.36 0.11 0.19 0.23 0.10 0.19 0.13 0.13 0.13 0.17 0.24 0.52 0.70 0.57 0.59 0.28 0.07 0.58 1.19 0.67 0.52 0.57 0.37 0.32 0.20 0.27 0.20 0.28 0.12 0.07 0.04 0.18 0.23 0.26 0.29 0.82 0.42 0.31 0.36 0.26 0.22 0.26 0.06 0.19 0.24 0.11 0.08 0.03 0.03 0.05 0.07 0.05 0.02 0.03 0.08 0.14 0.15 0.34 0.57 0.39 0.43 0.37 0.40 0.41 0.16 0.17 0.04 0.06 0.07 0.02 0.42 0.17 0.08 0.13 0.09 0.15 0.10 0.12 0.10 0.14 0.16 0.16 0.15 0.34 0.39
0.11 0.09 0.10 0.21 0.26 0.20 0.12 0.14 0.32 0.38 0.12 0.25 0.28 0.50 0.55 0.52 0.42 0.30 0.27 0.28 1.19 0.98 0.81 0.21 0.39 0.28 0.41 0.34 0.32 0.16 0.05 0.22 0.10 0.20 0.13 0.25 0.34 0.23 0.42 0.23 0.31 0.48 0.31 0.29 0.15 0.06 0.19 0.12 0.03 0.11 0.21 0.17 0.09 0.12 0.28 0.09 0.09 0.09 0.16 0.35 0.47 0.61 0.48 0.34 0.29 0.20 0.22 0.07 0.06 0.11 0.07 0.09 0.23 0.27 0.16 0.28 0.37 0.29 0.29 0.13 0.09 0.10 0.15 0.18 0.19 0.45 0.97 1.44
0.06 0.06 0.13 0.08 0.08 0.15 0.31 0.37 0.38 0.23 0.25 0.37 0.31 0.51 0.79 0.53 0.26 0.15 0.27 0.40 0.67 0.46 0.51 0.28 0.36 0.15 0.31 0.49 0.36 0.09 0.25 0.22 0.11 0.36 0.18 0.42 0.33 0.50 0.46 0.42 0.29 0.30 0.26 0.25 0.24 0.16 0.49 0.57 0.22 0.07 0.26 0.11 0.09 0.08 0.13 0.14 0.25 0.13 0.04 0.32 0.47 0.51 0.81 0.43 0.26 0.25 0.12 0.26 0.13 0.10 0.03 0.14 0.21 0.87 0.07 0.18 0.27 0.32 0.25 0.31 0.26 0.24 0.19 0.25 0.55 0.64 0.40 0.42
0.08 0.18 0.19 0.34 0.06 0.09 0.50 0.36 0.14 0.23 0.38 0.40 0.31 0.52 0.45 0.34 0.25 0.38 0.44 0.45 0.42 0.38 0.47 0.21 0.18 0.24 0.36 0.40 0.42 0.52 0.33 0.41 0.16 0.33 0.28 0.41 0.53 0.30 0.34 0.23 0.17 0.20 0.33 0.25 0.34 0.17 0.20 0.22 0.16 0.04 0.12 0.09 0.15 0.18 0.12 0.34 0.13 0.08 0.11 0.11 0.31 0.43 0.28 0.57 0.40 0.30 0.41 0.24 0.18 0.12 0.06 0.32 0.70 0.46 0.23 0.17 0.11 0.15 0.11 0.10 0.13 0.17 0.19 0.21 0.30 0.20 0.26 0.35
0.04 0.09 0.04 0.11 0.24 0.48 0.23 0.40 0.18 0.19 0.28 0.35 0.34 0.44 0.45 0.25 0.52 0.37 0.67 0.41 0.53 0.67 0.55 0.29 0.26 0.34 0.45 0.72 0.91 1.08 0.30 0.40 0.23 0.23 0.29 0.32 0.23 0.39 0.19 0.13 0.09 0.12 0.30 0.28 0.41 0.59 0.17 0.29 0.05 0.06 0.10 0.15 0.13 0.11 0.21 0.14 0.62 0.55 0.11 0.35 0.29 0.16 0.23 0.41 0.26 0.12 0.15 0.31 0.27 0.12 0.16 0.18 0.10 0.38 0.36 0.41 0.25 0.19 0.27 0.29 0.27 0.26 0.29 0.26 0.25 0.31 0.40 0.30
0.12 0.08 0.31 0.22 0.13 0.22 0.14 0.18 0.24 0.16 0.19 0.31 0.39 0.30 0.15 0.21 0.19 0.32 0.51 0.53 0.53 0.64 0.72 0.80 0.51 0.49 0.60 0.66 0.78 0.45 0.56 0.33 0.39 0.35 0.54 0.30 0.40 0.13 0.12 0.26 0.07 0.24 0.17 0.31 0.42 0.29 0.58 0.45 0.10 0.13 0.30 0.11 0.13 0.14 0.19 0.19 0.20 0.44 0.33 0.40 0.10 0.09 0.20 0.35 0.64 0.32 0.24 0.26 0.16 0.05 0.14 0.33 0.12 1.02 0.41 0.49 0.23 0.19 0.27 0.30 0.26 0.34 0.33 0.37 0.59 0.45 0.46 0.54
0.38 0.11 0.22 0.44 0.23 0.18 0.21 0.34 0.22 0.38 0.33 0.31 0.24 0.15 0.10 0.27 0.12 0.25 0.30 0.42 0.41 0.57 0.76 0.66 0.73 0.66 0.70 0.77 0.62 0.60 0.41 0.71 0.71 0.38 0.65 0.34 0.74 0.15 0.17 0.25 0.33 0.31 0.48 0.30 0.27 0.59 0.48 0.81 0.32 0.08 0.09 0.13 0.17 0.28 0.46 0.24 0.29 0.33 0.42 0.34 0.27 0.76 0.58 0.48 0.57 0.53 0.35 0.14 0.19 0.07 0.10 0.22 0.30 0.76 0.40 0.38 0.38 0.29 0.27 0.30 0.35 0.35 0.41 0.38 0.43 0.88 1.10 1.25
0.25 0.27 0.64 0.31 0.50 0.28 0.22 0.19 0.36 0.63 0.26 0.29 0.29 0.27 0.17 0.28 0.08 0.26 0.34 0.39 0.37 0.54 0.60 0.52 1.17 0.53 0.36 0.60 0.66 0.73 0.55 0.71 0.38 0.59 0.65 0.71 0.35 0.29 0.23 0.22 0.55 0.39 0.26 0.19 0.31 0.32 0.41 0.86 0.57 0.14 0.16 0.23 0.34 0.45 0.77 0.46 0.37 0.28 0.32 0.39 0.36 0.50 0.61 0.63 0.54 0.44 0.36 0.68 0.29 0.19 0.18 0.50 0.28 0.92 0.62 0.37 0.25 0.34 0.27 0.28 0.40 0.41 0.55 0.75 0.59 0.69 0.83 1.38
0.30 0.50 0.75 0.55 0.47 0.30 0.12 0.06 0.39 0.44 0.44 0.31 0.33 0.25 0.11 0.33 0.07 0.13 0.25 0.40 0.66 0.58 0.74 0.41 0.51 0.85 0.43 0.58 0.72 1.07 0.83 0.36 0.49 0.74 0.44 0.93 0.44 0.09 0.24 0.36 0.81 0.44 0.16 0.06 0.18 0.09 0.57 0.49 0.90 0.33 0.14 0.25 0.71 0.46 0.56 0.57 0.79 0.82 0.55 0.48 0.54 0.50 0.60 0.36 0.69 0.40 0.58 0.82 0.63 0.52 0.35 0.54 0.96 0.58 0.44 0.55 0.33 0.29 0.26 0.56 0.81 0.75 1.13 1.41 1.54 1.54 1.56 1.57
0.22 0.74 0.79 0.30 0.23 0.34 0.05 0.32 0.58 0.39 0.26 0.20 0.18 0.38 0.20 0.23 0.14 0.22 0.17 0.20 0.32 0.31 0.40 0.35 0.48 0.73 0.70 0.61 0.64 0.81 0.99 0.65 0.51 0.68 0.34 0.39 0.49 0.78 0.23 0.71 0.71 0.56 0.07 0.34 0.06 0.36 0.65 0.56 0.65 0.41 0.46 0.47 0.41 0.38 0.42 0.42 0.65 0.67 0.70 0.76 0.65 1.02 1.18 1.10 0.91 0.19 0.42 0.62 0.66 0.58 0.72 0.93 1.06 0.42 0.47 0.54 0.69 0.43 0.38 0.57 0.72 0.85 0.48 0.51 0.64 0.44 0.44 0.80
0.34 0.74 1.31 0.60 0.56 0.23 0.23 0.42 0.26 0.36 0.32 0.28 0.44 0.35 0.46 0.21 0.22 0.21 0.16 0.18 0.25 0.39 0.28 0.27 0.27 0.53 0.50 0.90 1.12 0.93 1.25 0.80 0.31 0.37 0.29 0.67 0.56 0.58 0.39 0.44 0.60 0.57 0.20 0.26 0.24 0.35 0.47 0.67 0.44 0.45 0.33 0.72 0.59 0.32 0.32 0.40 0.50 0.66 0.74 0.90 0.73 1.00 1.20 1.52 1.42 1.03 0.66 0.57 0.44 0.67 0.94 1.23 0.74 0.65 0.79 0.90 0.99 0.53 0.65 0.59 0.79 0.72 0.90 1.21 0.58 0.48 0.54 0.85
0.39 0.93 0.95 0.82 1.16 1.02 0.57 0.45 0.31 0.41 0.37 0.25 0.23 0.25 0.43 0.27 0.20 0.17 0.26 0.19 0.31 0.21 0.25 0.25 0.38 0.52 0.53 1.01 1.26 1.48 1.45 1.31 0.40 0.54 0.37 0.26 0.37 0.26 0.30 0.50 0.29 0.34 0.13 0.52 0.08 0.30 0.44 0.61 0.56 0.38 0.43 0.38 0.48 0.41 0.56 0.40 0.56 0.96 1.06 0.95 1.26 1.45 1.28 1.54 1.30 1.05 1.04 0.63 0.74 0.76 0.89 1.11 0.78 0.96 1.05 1.16 0.95 0.83 1.05 1.21 0.85 0.56 0.55 0.55 0.56 0.72 0.72 0.66
0.57 1.35 0.97 1.09 1.15 1.21 0.70 0.64 0.51 0.23 0.26 0.25 0.15 0.14 0.15 0.50 0.37 0.37 0.33 0.31 0.41 0.29 0.19 0.22 0.35 0.63 0.67 0.66 1.05 1.78 1.46 2.05 0.51 0.24 0.39 0.16 0.57 0.04 0.28 0.34 0.24 0.33 0.28 0.68 0.49 0.86 1.30 1.04 0.97 1.09 0.75 0.90 1.15 0.92 0.83 0.80 0.82 1.52 1.41 1.13 1.20 1.13 1.14 1.16 0.89 0.94 1.38 0.78 0.89 1.34 1.29 0.82 0.93 0.88 0.78 1.00 1.19 1.36 1.18 0.87 0.91 0.76 0.56 0.68 0.75 0.76 0.65 0.93
0.92 1.05 1.22 1.29 0.88 1.27 0.90 0.45 0.40 0.20 0.31 0.17 0.20 0.26 0.30 0.28 0.36 0.42 0.31 0.42 0.25 0.34 0.23 0.14 0.17 0.46 0.52 0.60 0.81 0.76 0.89 1.61 1.29 0.38 0.64 0.28 0.65 0.04 0.07 0.08 0.15 0.57 0.18 0.32 0.31 0.56 0.64 0.93 1.18 1.67 1.84 1.71 1.98 1.86 1.86 1.96 1.42 1.58 1.41 1.17 1.12 1.42 1.76 1.79 1.62 1.12 1.37 0.67 0.57 1.65 2.02 1.43 1.41 1.07 1.24 1.14 0.72 0.88 1.03 1.03 1.38 1.18 0.96 1.26 1.82 1.96 1.80 1.10
1.12 1.38 0.95 1.38 1.28 0.59 0.51 0.30 0.48 0.62 0.48 0.39 0.32 0.34 0.28 0.50 0.36 0.36 0.28 0.52 0.33 0.28 0.15 0.08 0.25 0.52 0.68 0.70 0.79 0.98 0.75 0.52 1.03 0.70 0.32 0.92 0.56 0.10 0.09 0.10 0.18 0.31 0.48 0.33 0.36 0.28 0.80 0.50 0.93 1.47 1.74 2.03 1.63 1.50 1.22 1.02 1.85 2.00 1.64 1.30 1.36 1.44 1.69 1.78 1.71 1.80 1.73 0.94 0.93 1.49 1.67 1.58 1.62 1.13 1.01 1.19 0.99 1.10 1.20 1.16 1.03 0.96 0.96 1.56 1.61 1.36 1.33 1.27
0.73 1.17 1.04 1.00 0.71 1.10 0.68 0.46 0.45 0.51 0.87 0.91 0.83 0.60 0.60 0.49 0.60 0.55 0.37 0.63 0.37 0.31 0.14 0.21 0.26 0.62 0.60 1.08 1.25 1.27 0.52 0.54 0.41 0.33 0.59 0.36 0.64 0.56 0.06 0.18 0.21 0.40 0.59 0.21 0.20 0.28 0.55 0.66 0.68 0.90 1.07 1.01 1.10 1.19 0.95 1.08 2.05 1.90 1.78 1.74 1.57 1.61 1.72 1.98 2.30 2.59 1.56 2.21 2.03 1.56 1.39 1.52 1.40 1.35 1.13 1.13 1.22 1.28 0.96 0.98 0.80 0.66 1.05 0.64 0.91 0.85 0.91 1.02
0.88 1.17 1.12 1.62 1.37 0.90 0.79 0.68 0.39 1.14 0.67 0.87 0.85 0.37 0.53 0.50 0.57 1.12 0.67 0.52 0.44 0.38 0.30 0.08 0.35 0.42 0.46 1.09 1.61 1.40 0.96 0.65 0.30 0.39 0.47 0.31 0.59 1.12 0.37 0.23 0.46 0.55 0.45 0.35 0.24 0.45 1.07 0.65 0.51 0.74 0.97 0.73 1.01 0.90 1.05 1.12 1.33 1.68 1.97 2.26 2.30 2.17 2.40 2.73 2.23 1.61 2.13 2.85 2.61 1.80 1.39 1.41 1.28 1.28 1.07 0.94 1.18 1.45 1.02 1.14 0.97 0.88 0.91 0.90 1.22 1.31 1.11 0.89
0.92 1.16 1.29 1.21 1.50 0.69 0.63 0.91 0.65 0.61 0.70 0.71 0.68 0.52 0.51 0.69 0.66 0.92 1.56 0.77 0.57 0.43 0.37 0.33 0.35 0.25 0.48 1.00 1.34 1.81 1.55 1.92 1.15 0.79 0.37 0.61 0.50 0.56 0.68 0.61 0.73 0.59 0.33 0.30 0.46 0.32 0.55 1.07 0.65 0.64 0.95 0.99 0.80 0.69 0.73 0.78 1.14 1.48 1.80 1.94 2.25 2.53 2.69 2.46 2.28 1.93 2.17 2.45 1.65 1.64 1.58 1.75 1.18 1.54 1.14 1.30 1.36 1.54 1.61 1.11 0.94 1.10 1.88 0.74 0.98 1.22 0.70 0.82
1.46 2.00 1.33 0.73 1.08 0.79 0.46 0.60 0.80 0.68 0.59 0.49 0.60 0.50 0.56 0.57 0.99 0.77 1.07 1.13 0.80 0.69 0.37 0.53 0.44 0.26 0.45 0.51 0.92 1.77 1.69 1.90 1.82 1.71 0.46 0.27 0.38 0.34 0.68 0.84 0.91 0.91 0.81 0.71 0.48 0.50 0.61 1.21 0.26 0.78 0.92 0.87 0.84 0.68 0.79 1.02 1.44 1.83 2.05 2.08 2.39 2.67 2.90 2.72 2.54 2.60 2.95 3.04 2.75 1.85 1.94 2.42 1.94 1.58 1.73 1.17 1.34 1.69 1.60 2.70 1.94 1.41 1.34 1.03 0.99 1.06 0.96 0.66
1.33 1.34 1.95 1.78 0.87 0.67 0.62 0.40 0.45 0.59 0.82 0.67 0.60 0.50 0.61 0.57 0.99 1.12 1.30 0.98 0.89 0.53 0.49 0.52 0.23 0.29 0.35 0.47 0.59 1.25 1.35 1.05 0.92 1.26 0.45 0.28 0.66 0.39 0.56 0.54 0.25 0.61 0.45 0.92 0.84 2.07 0.74 1.52 0.62 1.01 0.87 0.99 0.77 0.89 1.09 1.05 1.68 2.28 2.86 3.16 3.34 3.35 3.80 3.44 3.53 3.81 4.11 3.66 2.56 2.10 1.94 2.63 3.10 2.46 2.10 3.17 2.25 1.78 2.18 2.54 2.03 1.75 1.61 1.29 1.12 1.22 1.10 0.93
0.84 0.77 1.48 1.72 1.17 0.31 0.67 0.27 0.34 0.45 0.59 0.73 0.96 0.72 0.97 0.83 0.73 1.09 0.87 0.66 0.97 0.73 0.41 0.33 0.44 0.66 0.51 0.62 0.94 1.41 1.31 1.13 1.11 0.69 0.24 0.17 0.22 0.26 0.18 0.22 0.19 0.47 0.71 0.74 0.92 1.18 1.10 1.06 0.75 0.98 0.92 0.60 0.61 0.86 1.15 1.66 2.17 2.77 3.19 3.18 3.14 3.27 3.35 3.41 3.16 3.75 4.17 4.67 4.02 3.46 3.22 2.48 2.56 1.49 1.97 2.79 2.66 2.88 2.78 2.35 1.78 1.74 2.01 1.81 1.74 1.79 1.34 1.08